www.pogodaiklimat.ru

АРХИВ ПОГОДЫ в Бишкеке

Время (UTC), дата Ветер
(напр.,м/с)
 
Видим.   Явления Облачность Т
(С)
Тd
(С)
f
(%)
Тe
(С)
Тes
(С)
Комфортность P
(гПа)
Po
(гПа)
Тmin
(С)
Tmax
(С)
R
(мм)
S
(см)
15 11.01 Ю 2 н/о 4/0
[Ci fib]
+1.4 -8.2 49 -1 -1 по сезону 1023.9 932.9 +11.4
18 11.01 Ю 1 н/о 10/0
[Ac und]
-0.4 -5.9 66 -2 -2 по сезону 1025.5 933.9 +11.4
21 11.01 ЮЗ 1 н/о 10/0
[Ac lent Ci fib]
-1.2 -5.9 70 -3 -3 по сезону 1027.5 935.4
00 12.01 Ю 1 н/о 10/0
[Ac lent Ci fib]
-1.6 -5.7 74 -4 -4 по сезону 1028.5 936.2
03 12.01 штиль 0 20 км 10/0
[Ac lent]
-2.3 -5.5 79 -3 -3 по сезону 1028.6 936.1 10
06 12.01 З 2 20 км 8/0
[Ac trans]
+1.1 -2.7 76 -2 -0 по сезону 1027.4 936.1
09 12.01 З 1 20 км 10/0
[Ac trans]
+1.9 -3.5 67 +1 +2 по сезону 1025.9 935.0
12 12.01 СЗ 1 20 км 10/0
[Ac trans]
+0.4 -2.3 82 -1 -1 по сезону 1027.1 935.6
15 12.01 штиль 0 н/о слабый снег 10/10 600 м
[Sc]
-0.1 -2.1 86 -1 -1 по сезону 1028.1 936.4 +3.3
18 12.01 З 1 н/о слабый снег 10/10 600 м
[Sc]
-1.9 -3.7 87 -4 -4 по сезону 1029.0 936.5 +3.3 0.2
21 12.01 З 1 н/о слабый снег 10/10 600 м
[Sc]
-3.1 -4.5 90 -5 -5 по сезону 1029.6 936.7
00 13.01 штиль 0 н/о слабый снег 10/10 600 м
[Sc]
-3.1 -4.8 88 -4 -4 по сезону 1029.5 936.6
03 13.01 СВ 1 4000 м слабый снег 10/10 600 м
[Sc]
-2.7 -4.6 87 -5 -5 по сезону 1029.6 936.8 12
06 13.01 В 1 10 км {снег} 10/3 600 м
[Sc Ac trans Ci fib]
-1.6 -4.6 80 -4 -2 по сезону 1028.9 936.5 1
09 13.01 С 1 10 км 10/6 600 м
[Sc Ac trans]
-2.2 -4.7 83 -4 -4 по сезону 1027.8 935.4
12 13.01 З 1 10 км 10/8 600 м
[Sc Ac trans]
-3.0 -5.4 83 -5 -5 по сезону 1029.4 936.5
15 13.01 С 1 н/о 10/0
[Ac trans]
-3.1 -5.5 83 -5 -5 по сезону 1029.7 936.8 +0.1
18 13.01 СВ 1 н/о 10/0
[Ac trans]
-3.1 -5.5 83 -5 -5 по сезону 1029.0 936.2 +0.1 0.3
21 13.01 штиль 0 н/о 10/0
[Ac trans]
-3.7 -5.9 85 -5 -5 по сезону 1028.6 935.6
00 14.01 штиль 0 н/о 10/0
[Ac trans]
-3.4 -5.9 83 -4 -4 по сезону 1028.1 935.2
03 14.01 штиль 0 4000 м дымка 10/10
[Sc]
-3.8 -5.0 91 -5 -5 по сезону 1028.2 935.2 11
06 14.01 штиль 0 1000 м дымка ясно -3.6 -5.4 87 -5 +1 прохладно 1028.1 935.2
09 14.01 СЗ 1 10 км дым ясно -1.2 -5.2 74 -3 0 по сезону 1026.9 934.8
12 14.01 З 1 20 км ясно -3.0 -6.4 77 -5 -5 по сезону 1028.7 935.9
15 14.01 Ю 1 н/о ясно -6.0 -5.9 100 -9 -9 прохладно 1030.9 936.8 -0.8
18 14.01 штиль 0 н/о ясно -7.6 -9.8 84 -8 -8 по сезону 1031.0 936.4 -0.8
21 14.01 штиль 0 н/о ясно -8.1 -10.4 83 -9 -9 по сезону 1030.8 936.1
00 15.01 штиль 0 н/о ясно -10.5 -12.5 85 -11 -11 прохладно 1031.8 936.1
03 15.01 штиль 0 20 км ясно -11.7 -13.7 85 -12 -12 холодно 1032.5 936.4 11
06 15.01 С 1 10 км дым ясно -6.4 -10.0 76 -9 -4 холодно 1030.5 936.4
09 15.01 С 1 10 км дым ясно -2.5 -7.3 70 -4 -1 по сезону 1027.9 935.4
12 15.01 З 1 <50 м туман ?/? -6.6 -8.2 88 -9 -9 холодно 1030.1 935.9
15 15.01 СЗ 1 н/о туман ?/? -6.8 -8.4 88 -9 -9 прохладно 1031.2 936.8 -1.9
18 15.01 штиль 0 н/о туман ?/? -7.4 -8.7 90 -8 -8 по сезону 1030.5 936.0 -1.9
21 15.01 З 1 н/о туман ?/? -10.1 -12.1 85 -12 -12 холодно 1031.2 935.7
00 16.01 З 1 н/о туман ?/? -10.3 -11.6 90 -13 -13 холодно 1031.1 935.6
03 16.01 штиль 0 н/о туман ?/? -11.3 -12.6 90 -11 -11 холодно 1031.8 935.8 11
06 16.01 штиль 0 1000 м дымка {туман} ясно -6.9 -8.1 91 -8 -2 холодно 1029.2 935.0
09 16.01 З 1 10 км дым ясно -5.1 -6.8 88 -7 -4 прохладно 1027.3 934.0
12 16.01 З 2 500 м туман ?/? -7.3 -8.6 90 -12 -12 очень
холодно
1029.6 935.3
15 16.01 С 1 н/о туман ?/? -7.2 -8.1 93 -10 -10 холодно 1030.0 935.6 -4.7
18 16.01 Ю 1 н/о туман ?/? -7.6 -8.5 93 -10 -10 прохладно 1029.9 935.4 -4.7
21 16.01 штиль 0 н/о туман ?/? -7.9 -8.9 93 -9 -9 по сезону 1030.5 935.9
00 17.01 штиль 0 н/о туман ?/? -8.4 -9.4 92 -9 -9 по сезону 1031.7 936.7
03 17.01 штиль 0 н/о туман ?/? -8.2 -9.2 92 -9 -9 прохладно 1032.0 937.1 11
06 17.01 СЗ 1 1000 м в посл. час туман ясно -7.0 -8.7 88 -9 -5 холодно 1031.6 937.2
09 17.01 ЮЗ 1 500 м туман ?/? -6.3 -7.8 89 -9 -9 холодно 1031.2 937.1
12 17.01 С 1 1000 м дымка {туман} ясно -7.3 -9.0 88 -10 -10 холодно 1032.9 938.3
15 17.01 ЮВ 1 н/о туман ясно -8.3 -9.7 90 -11 -11 холодно 1033.7 938.6 -5.4
18 17.01 СВ 1 н/о в посл. час туман ясно -6.9 -10.2 77 -9 -9 по сезону 1031.6 937.2 -5.4
21 17.01 штиль 0 н/о ясно -5.3 -10.3 68 -6 -6 по сезону 1030.5 936.7
00 18.01 ЮЗ 1 н/о ясно -4.6 -11.2 60 -6 -6 по сезону 1030.4 936.8
03 18.01 Ю 1 20 км ясно -4.6 -11.2 60 -6 -6 по сезону 1031.5 937.8 11
06 18.01 В 1 20 км 3/0
[Ci fib]
+3.9 -7.9 42 +3 +8 тепло 1029.7 939.0
09 18.01 З 1 20 км 3/0
[Ci fib]
+5.5 -7.5 39 +5 +8 тепло 1028.2 938.2
12 18.01 штиль 0 20 км 6/0
[Ci fib]
+0.6 -8.5 50 0 0 по сезону 1032.0 940.1

 

Местоположение метеостанции Бишкек (город Бишкек, Киргизия): широта 42.85 долгота 74.53 высота над уровнем моря 760 м.

В архиве по умолчанию представлена погода в Бишкеке за последнюю неделю. Архивные данные за месяц целиком и за предыдущие месяцы, начиная с января 2011 года, Вы можете получить, выбрав интересующий диапазон дат из раскрывающегося списка и нажав кнопку "Ввод!".

Внимание! Время в таблицах - всемирное. Для получения местного времени необходимо прибавить поправку, которая в Бишкеке равна 6 ч.

Ветер - указаны скорость ветра в м/с - средняя за 10 мин, порывы в срок и между сроками (в фигурных скобках) и направление, откуда дует ветер: С - северный, СВ - северо-восточный, В - восточный, ЮВ - юго-восточный, Ю - южный, ЮЗ - юго-западный, З - западный, СЗ - северо-западный.
Видимость - горизонтальная дальность видимости в метрах или километрах. При видимости от 1 до 10 км при отсутствии осадков обычно наблюдается дымка, при ухудшении видимости до 1 км и менее - туман. В сухую погоду видимость может ухудшаться дымом, пылью или мглою.
Явления - указаны атмосферные явления, наблюдавшиеся в срок или в последний час перед сроком; фигурными скобками обозначены явления, наблюдавшиеся между сроками (за 1-3 часа до срока); квадратными скобками обозначены град или гололедные отложения с указанием их диаметра в мм.
Облачность - указаны через наклонную черту общая и нижняя облачность в баллах и высота нижней границы облаков в метрах; квадратными скобками обозначены формы облаков: Ci - перистые, Cs - перисто-слоистые, Cc - перисто-кучевые, Ac - высококучевые, As - высокослоистые, Sc - слоисто-кучевые, Ns - слоисто-дождевые, Cu - кучевые, Cb - кучево-дождевые. Подробнее классификацию облаков см. в Атласе облаков (PDF).
T - Температура воздуха - температура, измеренная на высоте 2 м над землей.
Td - Температура точки росы - температура, при понижении до которой содержащийся в воздухе водяной пар достигнет насыщения.
f - Относительная влажность воздуха - влажноcть воздуха, измеренная на высоте 2 м над землей.
Te - Эффективная температура - температура, которую ощущает одетый по сезону человек в тени. Характеристика душности погоды. При расчете учитывается влияние влажности воздуха и скорости ветра на теплоощущения человека.
Tes - Эффективная температура на солнце - температура, которую ощущает человек, с поправкой на солнечный нагрев. Характеристика знойности погоды. Зависит от высоты солнца над горизонтом, облачности и скорости ветра. Ночью, в пасмурную погоду, а также при ветре 12 м/с и более поправка равна нулю.
P - Атмосферное давление - приведенное к уровню моря атмосферное давление.
Po - Атмосферное давление - измеренное на уровне метеостанции атмосферное давление.
Tmin - Минимальная температура - минимум температуры воздуха на высоте 2 м над землей.
Tmax - Максимальная температура - максимум температуры воздуха на высоте 2 м над землей.
R - Количество осадков - Количество выпавших осадков, мм. При наведении курсора мыши на число - период времени, за который выпало указанное количество осадков.
S - Снежный покров - Высота снежного покрова, см. При наведении курсора мыши на число - состояние снежного покрова и степень покрытия местности в баллах.